TimePST,TemperatureF,Dew PointF,Humidity,Sea Level PressureIn,VisibilityMPH,Wind Direction,Wind SpeedMPH,Gust SpeedMPH,PrecipitationIn,Events,Conditions,WindDirDegrees,DateUTC
4:00 AM,23,21,89,30.47,,West,6.9,,,,,260,2012-11-19 12:00:00
6:00 AM,48.2,46.4,93,29.44,15.0,South,5.8,-,N/A,,Overcast,180,2012-11-19 14:00:00
7:00 AM,48.2,46.4,93,29.42,15.0,SSE,11.5,-,N/A,,Overcast,150,2012-11-19 15:00:00
7:22 AM,-9999,-9999,N/A,-9999,12.0,South,4.6,-,N/A,Rain,Light Rain Showers,180,2012-11-19 15:22:00
7:48 AM,-9999,-9999,N/A,-9999,15.0,SSE,6.9,-,N/A,Rain,Light Rain Showers,150,2012-11-19 15:48:00
8:00 AM,48.2,46.4,93,29.42,12.0,SE,3.5,-,N/A,Rain,Light Rain Showers,130,2012-11-19 16:00:00
9:00 AM,48.2,46.4,93,29.42,8.0,SSE,5.8,-,N/A,Rain,Light Rain,160,2012-11-19 17:00:00
10:00 AM,37,29,64,30.34,,WSW,13.8,,,,,240,2012-11-19 18:00:00
10:00 AM,48.2,46.4,93,29.40,12.0,ESE,9.2,-,N/A,Rain,Light Rain,120,2012-11-19 18:00:00
11:00 AM,48.2,46.4,93,29.37,12.0,SSE,8.1,-,N/A,Rain,Light Rain,150,2012-11-19 19:00:00
12:00 PM,48.2,46.4,93,29.34,10.0,SE,10.4,-,N/A,Rain,Light Rain,130,2012-11-19 20:00:00
12:32 PM,-9999,-9999,N/A,-9999,6.0,East,8.1,-,N/A,Rain,Light Rain,100,2012-11-19 20:32:00
12:45 PM,-9999,-9999,N/A,-9999,3.0,SE,10.4,-,N/A,Rain,Light Rain,130,2012-11-19 20:45:00
1:00 PM,48.2,46.4,93,29.32,3.0,ESE,9.2,-,N/A,Rain,Light Rain,120,2012-11-19 21:00:00
2:00 PM,46.4,46.4,100,29.34,3.0,East,9.2,-,N/A,Rain,Light Rain,100,2012-11-19 22:00:00
3:00 PM,46.4,46.4,100,29.36,3.0,SE,4.6,-,N/A,Rain,Light Rain,130,2012-11-19 23:00:00
3:11 PM,-9999,-9999,N/A,-9999,4.0,SSE,4.6,-,N/A,,Overcast,150,2012-11-19 23:11:00
4:00 PM,30,29,92,30.27,,WSW,6.9,,,,,250,2012-11-20 00:00:00
4:00 PM,46.4,46.4,100,29.37,4.0,ENE,4.6,-,N/A,,Mostly Cloudy,60,2012-11-20 00:00:00
5:00 PM,46.4,46.4,100,29.42,4.0,NNW,4.6,-,N/A,,Overcast,330,2012-11-20 01:00:00
5:09 PM,-9999,-9999,N/A,-9999,4.0,North,5.8,-,N/A,Rain,Light Rain,10,2012-11-20 01:09:00
5:30 PM,-9999,-9999,N/A,-9999,6.0,NNE,2.3,-,N/A,Rain,Light Rain,20,2012-11-20 01:30:00
5:51 PM,-9999,-9999,N/A,-9999,5.0,Calm,Calm,-,N/A,Rain,Light Rain,0,2012-11-20 01:51:00
6:00 PM,46.4,46.4,100,29.44,6.0,SSE,4.6,-,N/A,Rain,Light Rain,160,2012-11-20 02:00:00
6:28 PM,-9999,-9999,N/A,-9999,8.0,South,11.5,-,N/A,,Overcast,170,2012-11-20 02:28:00
6:52 PM,-9999,-9999,N/A,-9999,8.0,Calm,Calm,-,N/A,,Overcast,0,2012-11-20 02:52:00
7:00 PM,46.4,46.4,100,29.47,8.0,Calm,Calm,-,N/A,,Overcast,0,2012-11-20 03:00:00
8:00 PM,42.8,42.8,100,29.50,15.0,Calm,Calm,-,N/A,,Scattered Clouds,0,2012-11-20 04:00:00
9:00 PM,41.0,41.0,100,29.54,15.0,West,4.6,-,N/A,,Partly Cloudy,280,2012-11-20 05:00:00
10:00 PM,32,29,82,30.20,,West,3.5,,,,,260,2012-11-20 06:00:00